Time,TemperatureF,DewpointF,PressureIn,WindDirection,WindDirectionDegrees,WindSpeedMPH,WindSpeedGustMPH,Humidity,HourlyPrecipIn,Conditions,Clouds,dailyrainin,SolarRadiationWatts/m^2,SoftwareType,DateUTC
2013-03-14 00:00:00,47.0,38.4,30.10,ESE,117,0.0,0.0,72,0.00,,,0.00,0,Wunderground v.1.15,2013-03-14 07:00:00,
2013-03-14 00:10:00,46.3,37.8,30.09,ESE,112,0.0,0.0,72,0.00,,,0.00,0,Wunderground v.1.15,2013-03-14 07:10:00,
2013-03-14 00:20:00,45.3,37.5,30.09,NNE,30,0.0,0.0,74,0.00,,,0.00,0,Wunderground v.1.15,2013-03-14 07:20:00,
2013-03-14 00:25:00,44.9,37.5,30.09,NW,321,1.0,3.0,75,0.00,,,0.00,0,Wunderground v.1.15,2013-03-14 07:25:00,
2013-03-14 00:30:00,44.8,37.7,30.09,NW,318,1.0,1.0,76,0.00,,,0.00,0,Wunderground v.1.15,2013-03-14 07:30:00,
2013-03-14 00:35:00,44.8,37.7,30.09,NW,318,1.0,1.0,76,0.00,,,0.00,0,Wunderground v.1.15,2013-03-14 07:35:00,
2013-03-14 00:40:00,44.6,37.2,30.09,NW,318,0.0,0.0,75,0.00,,,0.00,0,Wunderground v.1.15,2013-03-14 07:40:00,
2013-03-14 00:50:00,44.4,37.3,30.09,NW,318,0.0,0.0,76,0.00,,,0.00,0,Wunderground v.1.15,2013-03-14 07:50:00,
2013-03-14 00:55:00,44.4,37.0,30.09,NW,318,0.0,0.0,75,0.00,,,0.00,0,Wunderground v.1.15,2013-03-14 07:55:00,
2013-03-14 01:00:00,44.4,36.6,30.09,NW,318,0.0,0.0,74,0.00,,,0.00,0,Wunderground v.1.15,2013-03-14 08:00:00,
2013-03-14 01:10:00,44.5,36.7,30.09,NW,317,0.0,0.0,74,0.00,,,0.00,0,Wunderground v.1.15,2013-03-14 08:10:00,
2013-03-14 01:15:00,44.5,36.4,30.09,NW,317,0.0,0.0,73,0.00,,,0.00,0,Wunderground v.1.15,2013-03-14 08:15:00,
2013-03-14 01:25:00,44.5,36.7,30.09,NW,317,0.0,0.0,74,0.00,,,0.00,0,Wunderground v.1.15,2013-03-14 08:25:00,
2013-03-14 01:30:00,44.4,36.6,30.09,NW,317,0.0,0.0,74,0.00,,,0.00,0,Wunderground v.1.15,2013-03-14 08:30:00,
2013-03-14 01:35:00,44.3,36.5,30.09,NW,318,0.0,0.0,74,0.00,,,0.00,0,Wunderground v.1.15,2013-03-14 08:35:00,
2013-03-14 01:40:00,44.2,36.4,30.09,NW,318,0.0,0.0,74,0.00,,,0.00,0,Wunderground v.1.15,2013-03-14 08:40:00,
2013-03-14 01:45:00,44.2,36.4,30.08,NW,317,0.0,0.0,74,0.00,,,0.00,0,Wunderground v.1.15,2013-03-14 08:45:00,
2013-03-14 01:55:00,44.2,36.4,30.08,NW,317,0.0,0.0,74,0.00,,,0.00,0,Wunderground v.1.15,2013-03-14 08:55:00,
2013-03-14 02:00:00,44.1,36.0,30.08,NW,317,0.0,0.0,73,0.00,,,0.00,0,Wunderground v.1.15,2013-03-14 09:00:00,
2013-03-14 02:10:00,43.8,35.7,30.08,NW,317,0.0,0.0,73,0.00,,,0.00,0,Wunderground v.1.15,2013-03-14 09:10:00,
2013-03-14 02:15:00,43.7,35.6,30.08,NW,317,0.0,0.0,73,0.00,,,0.00,0,Wunderground v.1.15,2013-03-14 09:15:00,
2013-03-14 02:20:00,43.6,35.9,30.08,NW,317,0.0,0.0,74,0.00,,,0.00,0,Wunderground v.1.15,2013-03-14 09:20:00,
2013-03-14 02:25:00,43.0,35.3,30.08,NW,317,0.0,0.0,74,0.00,,,0.00,0,Wunderground v.1.15,2013-03-14 09:25:00,
2013-03-14 02:30:00,42.7,35.3,30.08,NW,317,0.0,0.0,75,0.00,,,0.00,0,Wunderground v.1.15,2013-03-14 09:30:00,
2013-03-14 02:35:00,42.4,35.0,30.08,NW,317,0.0,0.0,75,0.00,,,0.00,0,Wunderground v.1.15,2013-03-14 09:35:00,
2013-03-14 02:40:00,42.1,35.1,30.08,NW,317,0.0,0.0,76,0.00,,,0.00,0,Wunderground v.1.15,2013-03-14 09:40:00,
2013-03-14 02:45:00,41.9,35.2,30.08,NW,317,0.0,0.0,77,0.00,,,0.00,0,Wunderground v.1.15,2013-03-14 09:45:00,
2013-03-14 02:50:00,41.8,35.1,30.09,NW,318,1.0,4.0,77,0.00,,,0.00,0,Wunderground v.1.15,2013-03-14 09:50:00,
2013-03-14 03:00:00,41.5,35.2,30.08,NW,318,3.0,3.0,78,0.00,,,0.00,0,Wunderground v.1.15,2013-03-14 10:00:00,
2013-03-14 03:10:00,41.2,34.9,30.08,WNW,300,1.0,7.0,78,0.00,,,0.00,0,Wunderground v.1.15,2013-03-14 10:10:00,
2013-03-14 03:15:00,41.4,35.1,30.08,NW,307,4.0,7.0,78,0.00,,,0.00,0,Wunderground v.1.15,2013-03-14 10:15:00,
2013-03-14 03:20:00,41.7,35.0,30.08,NW,310,5.0,5.0,77,0.00,,,0.00,0,Wunderground v.1.15,2013-03-14 10:20:00,
2013-03-14 03:30:00,41.8,35.1,30.08,NW,310,1.0,1.0,77,0.00,,,0.00,0,Wunderground v.1.15,2013-03-14 10:30:00,
2013-03-14 03:35:00,41.9,35.2,30.08,NW,310,0.0,1.0,77,0.00,,,0.00,0,Wunderground v.1.15,2013-03-14 10:35:00,
2013-03-14 03:40:00,41.9,35.2,30.07,NW,310,0.0,0.0,77,0.00,,,0.00,0,Wunderground v.1.15,2013-03-14 10:40:00,
2013-03-14 03:45:00,41.9,35.2,30.08,NW,310,0.0,0.0,77,0.00,,,0.00,0,Wunderground v.1.15,2013-03-14 10:45:00,
2013-03-14 03:50:00,41.9,35.2,30.07,NW,310,0.0,0.0,77,0.00,,,0.00,0,Wunderground v.1.15,2013-03-14 10:50:00,
2013-03-14 03:55:00,41.9,35.2,30.07,NW,310,0.0,0.0,77,0.00,,,0.00,0,Wunderground v.1.15,2013-03-14 10:55:00,
2013-03-14 04:00:00,41.8,35.1,30.07,NW,310,0.0,4.0,77,0.00,,,0.00,0,Wunderground v.1.15,2013-03-14 11:00:00,
2013-03-14 04:10:00,41.7,35.0,30.07,NW,309,2.0,2.0,77,0.00,,,0.00,0,Wunderground v.1.15,2013-03-14 11:10:00,
2013-03-14 04:15:00,41.7,35.0,30.07,NW,309,0.0,2.0,77,0.00,,,0.00,0,Wunderground v.1.15,2013-03-14 11:15:00,
2013-03-14 04:20:00,41.7,35.0,30.06,NW,309,0.0,0.0,77,0.00,,,0.00,0,Wunderground v.1.15,2013-03-14 11:20:00,
2013-03-14 04:25:00,41.8,34.8,30.06,NW,306,0.0,0.0,76,0.00,,,0.00,0,Wunderground v.1.15,2013-03-14 11:25:00,
2013-03-14 04:35:00,42.1,35.1,30.06,NW,306,0.0,0.0,76,0.00,,,0.00,0,Wunderground v.1.15,2013-03-14 11:35:00,
2013-03-14 04:40:00,42.3,34.9,30.06,NW,306,0.0,0.0,75,0.00,,,0.00,0,Wunderground v.1.15,2013-03-14 11:40:00,
2013-03-14 04:45:00,42.5,34.8,30.06,NW,304,0.0,0.0,74,0.00,,,0.00,0,Wunderground v.1.15,2013-03-14 11:45:00,
2013-03-14 04:50:00,42.8,34.7,30.06,WNW,302,0.0,0.0,73,0.00,,,0.00,0,Wunderground v.1.15,2013-03-14 11:50:00,
2013-03-14 04:55:00,43.2,34.8,30.06,West,277,0.0,5.0,72,0.00,,,0.00,0,Wunderground v.1.15,2013-03-14 11:55:00,
2013-03-14 05:00:00,43.5,35.1,30.06,West,279,0.0,0.0,72,0.00,,,0.00,0,Wunderground v.1.15,2013-03-14 12:00:00,
2013-03-14 05:10:00,43.8,35.0,30.06,WNW,287,1.0,1.0,71,0.00,,,0.00,0,Wunderground v.1.15,2013-03-14 12:10:00,
2013-03-14 05:15:00,43.8,35.0,30.06,WNW,290,1.0,1.0,71,0.00,,,0.00,0,Wunderground v.1.15,2013-03-14 12:15:00,
2013-03-14 05:20:00,43.8,35.0,30.06,WNW,299,1.0,2.0,71,0.00,,,0.00,0,Wunderground v.1.15,2013-03-14 12:20:00,
2013-03-14 05:25:00,43.6,34.8,30.06,WNW,298,2.0,2.0,71,0.00,,,0.00,0,Wunderground v.1.15,2013-03-14 12:25:00,
2013-03-14 05:30:00,43.6,34.8,30.05,WNW,298,1.0,1.0,71,0.00,,,0.00,0,Wunderground v.1.15,2013-03-14 12:30:00,
2013-03-14 05:40:00,43.4,34.6,30.05,WNW,298,0.0,0.0,71,0.00,,,0.00,0,Wunderground v.1.15,2013-03-14 12:40:00,
2013-03-14 05:45:00,43.4,34.6,30.05,WNW,298,0.0,0.0,71,0.00,,,0.00,0,Wunderground v.1.15,2013-03-14 12:45:00,
2013-03-14 05:50:00,43.3,34.5,30.05,WNW,298,0.0,0.0,71,0.00,,,0.00,0,Wunderground v.1.15,2013-03-14 12:50:00,
2013-03-14 05:55:00,43.2,34.4,30.04,WNW,298,0.0,0.0,71,0.00,,,0.00,0,Wunderground v.1.15,2013-03-14 12:55:00,
2013-03-14 06:00:00,43.1,34.3,30.05,WNW,298,0.0,0.0,71,0.00,,,0.00,0,Wunderground v.1.15,2013-03-14 13:00:00,
2013-03-14 06:10:00,42.4,34.0,30.06,NW,308,2.0,4.0,72,0.00,,,0.00,0,Wunderground v.1.15,2013-03-14 13:10:00,
2013-03-14 06:15:00,42.3,33.9,30.06,NW,317,3.0,4.0,72,0.00,,,0.00,0,Wunderground v.1.15,2013-03-14 13:15:00,
2013-03-14 06:20:00,42.2,34.2,30.05,NW,317,2.0,2.0,73,0.00,,,0.00,0,Wunderground v.1.15,2013-03-14 13:20:00,
2013-03-14 06:25:00,42.0,34.0,30.05,NW,317,0.0,2.0,73,0.00,,,0.00,0,Wunderground v.1.15,2013-03-14 13:25:00,
2013-03-14 06:30:00,41.8,33.8,30.05,NW,317,0.0,0.0,73,0.00,,,0.00,0,Wunderground v.1.15,2013-03-14 13:30:00,
2013-03-14 06:35:00,41.6,33.9,30.05,NW,317,0.0,0.0,74,0.00,,,0.00,0,Wunderground v.1.15,2013-03-14 13:35:00,
2013-03-14 06:40:00,41.4,33.7,30.05,NW,317,0.0,0.0,74,0.00,,,0.00,0,Wunderground v.1.15,2013-03-14 13:40:00,
2013-03-14 06:45:00,41.3,33.6,30.05,NW,317,0.0,0.0,74,0.00,,,0.00,0,Wunderground v.1.15,2013-03-14 13:45:00,
2013-03-14 06:50:00,41.2,33.5,30.04,NW,317,0.0,0.0,74,0.00,,,0.00,0,Wunderground v.1.15,2013-03-14 13:50:00,
2013-03-14 06:55:00,41.1,33.4,30.04,NW,317,0.0,0.0,74,0.00,,,0.00,0,Wunderground v.1.15,2013-03-14 13:55:00,
2013-03-14 07:00:00,41.1,33.4,30.04,NW,317,0.0,0.0,74,0.00,,,0.00,0,Wunderground v.1.15,2013-03-14 14:00:00,
2013-03-14 07:10:00,40.9,32.9,30.03,NW,317,0.0,0.0,73,0.00,,,0.00,0,Wunderground v.1.15,2013-03-14 14:10:00,
2013-03-14 07:15:00,40.9,32.9,30.03,NW,317,0.0,0.0,73,0.00,,,0.00,0,Wunderground v.1.15,2013-03-14 14:15:00,
2013-03-14 07:20:00,40.8,32.8,30.03,NW,317,0.0,0.0,73,0.00,,,0.00,0,Wunderground v.1.15,2013-03-14 14:20:00,
2013-03-14 07:25:00,40.7,32.4,30.04,NW,316,0.0,0.0,72,0.00,,,0.00,5,Wunderground v.1.15,2013-03-14 14:25:00,
2013-03-14 07:30:00,40.7,32.4,30.04,NW,314,0.0,3.0,72,0.00,,,0.00,9,Wunderground v.1.15,2013-03-14 14:30:00,
2013-03-14 07:35:00,40.8,32.5,30.03,NW,314,1.0,3.0,72,0.00,,,0.00,14,Wunderground v.1.15,2013-03-14 14:35:00,
2013-03-14 07:40:00,41.0,32.7,30.04,NW,313,1.0,1.0,72,0.00,,,0.00,18,Wunderground v.1.15,2013-03-14 14:40:00,
2013-03-14 07:50:00,41.2,32.9,30.04,NW,310,0.0,0.0,72,0.00,,,0.00,33,Wunderground v.1.15,2013-03-14 14:50:00,
2013-03-14 07:55:00,41.5,33.1,30.04,WNW,291,0.0,0.0,72,0.00,,,0.00,37,Wunderground v.1.15,2013-03-14 14:55:00,
2013-03-14 08:00:00,41.5,33.1,30.05,WNW,291,0.0,0.0,72,0.00,,,0.00,40,Wunderground v.1.15,2013-03-14 15:00:00,
2013-03-14 08:10:00,41.6,33.2,30.04,WNW,291,0.0,0.0,72,0.00,,,0.00,63,Wunderground v.1.15,2013-03-14 15:10:00,
2013-03-14 08:20:00,42.0,33.3,30.04,WNW,291,0.0,0.0,71,0.00,,,0.00,53,Wunderground v.1.15,2013-03-14 15:20:00,
2013-03-14 08:25:00,42.2,32.8,30.03,WNW,291,0.0,0.0,69,0.00,,,0.00,63,Wunderground v.1.15,2013-03-14 15:25:00,
2013-03-14 08:30:00,42.6,32.8,30.04,West,275,1.0,4.0,68,0.00,,,0.00,70,Wunderground v.1.15,2013-03-14 15:30:00,
2013-03-14 08:35:00,44.2,33.6,30.05,West,259,2.0,5.0,66,0.00,,,0.00,54,Wunderground v.1.15,2013-03-14 15:35:00,
2013-03-14 08:40:00,45.3,33.4,30.05,West,273,1.0,1.0,63,0.00,,,0.00,54,Wunderground v.1.15,2013-03-14 15:40:00,
2013-03-14 08:45:00,45.8,33.5,30.05,West,273,0.0,1.0,62,0.00,,,0.00,62,Wunderground v.1.15,2013-03-14 15:45:00,
2013-03-14 08:55:00,46.4,33.7,30.05,West,265,1.0,1.0,61,0.00,,,0.00,79,Wunderground v.1.15,2013-03-14 15:55:00,
2013-03-14 09:00:00,46.7,34.0,30.05,WNW,293,1.0,1.0,61,0.00,,,0.00,70,Wunderground v.1.15,2013-03-14 16:00:00,
2013-03-14 09:10:00,46.8,34.5,30.05,WNW,293,0.0,0.0,62,0.00,,,0.00,81,Wunderground v.1.15,2013-03-14 16:10:00,
2013-03-14 09:15:00,46.7,34.4,30.06,WNW,293,0.0,0.0,62,0.00,,,0.00,116,Wunderground v.1.15,2013-03-14 16:15:00,
2013-03-14 09:25:00,46.2,35.1,30.07,NW,318,0.0,0.0,65,0.00,,,0.00,105,Wunderground v.1.15,2013-03-14 16:25:00,
2013-03-14 09:30:00,45.9,35.2,30.07,NNW,327,0.0,0.0,66,0.00,,,0.00,116,Wunderground v.1.15,2013-03-14 16:30:00,
2013-03-14 09:35:00,45.5,35.2,30.07,NNW,327,0.0,0.0,67,0.00,,,0.00,128,Wunderground v.1.15,2013-03-14 16:35:00,
2013-03-14 09:40:00,45.3,35.0,30.08,NNW,327,0.0,0.0,67,0.00,,,0.00,148,Wunderground v.1.15,2013-03-14 16:40:00,
2013-03-14 09:45:00,45.3,35.0,30.08,NNW,327,0.0,0.0,67,0.00,,,0.00,142,Wunderground v.1.15,2013-03-14 16:45:00,
2013-03-14 09:50:00,45.4,35.1,30.08,NNW,327,0.0,0.0,67,0.00,,,0.00,174,Wunderground v.1.15,2013-03-14 16:50:00,
2013-03-14 10:00:00,46.1,35.4,30.08,NW,324,0.0,0.0,66,0.00,,,0.00,179,Wunderground v.1.15,2013-03-14 17:00:00,
2013-03-14 10:10:00,47.3,35.7,30.08,NW,324,0.0,0.0,64,0.00,,,0.00,230,Wunderground v.1.15,2013-03-14 17:10:00,
2013-03-14 10:15:00,48.3,35.9,30.08,NW,324,0.0,0.0,62,0.00,,,0.00,341,Wunderground v.1.15,2013-03-14 17:15:00,
2013-03-14 10:20:00,49.3,36.0,30.08,NW,324,0.0,0.0,60,0.00,,,0.00,220,Wunderground v.1.15,2013-03-14 17:20:00,
2013-03-14 10:30:00,51.4,35.8,30.09,WNW,293,0.0,0.0,55,0.00,,,0.00,422,Wunderground v.1.15,2013-03-14 17:30:00,
2013-03-14 10:35:00,52.6,36.4,30.09,WNW,293,0.0,0.0,54,0.00,,,0.00,343,Wunderground v.1.15,2013-03-14 17:35:00,
2013-03-14 10:40:00,53.6,35.9,30.08,SW,226,1.0,4.0,51,0.00,,,0.00,397,Wunderground v.1.15,2013-03-14 17:40:00,
2013-03-14 10:45:00,54.6,36.8,30.08,SW,229,1.0,4.0,51,0.00,,,0.00,529,Wunderground v.1.15,2013-03-14 17:45:00,
2013-03-14 10:50:00,55.8,36.4,30.08,SW,230,1.0,1.0,48,0.00,,,0.00,515,Wunderground v.1.15,2013-03-14 17:50:00,
2013-03-14 10:55:00,56.9,36.9,30.08,SW,222,1.0,3.0,47,0.00,,,0.00,322,Wunderground v.1.15,2013-03-14 17:55:00,
2013-03-14 11:00:00,57.2,36.0,30.08,SW,230,2.0,2.0,45,0.00,,,0.00,272,Wunderground v.1.15,2013-03-14 18:00:00,
2013-03-14 11:10:00,57.7,36.5,30.08,SW,236,1.0,1.0,45,0.00,,,0.00,274,Wunderground v.1.15,2013-03-14 18:10:00,
2013-03-14 11:15:00,58.1,36.9,30.08,SW,229,0.0,1.0,45,0.00,,,0.00,294,Wunderground v.1.15,2013-03-14 18:15:00,
2013-03-14 11:20:00,58.4,37.1,30.08,WSW,248,0.0,0.0,45,0.00,,,0.00,297,Wunderground v.1.15,2013-03-14 18:20:00,
2013-03-14 11:25:00,58.7,36.8,30.08,WSW,250,0.0,0.0,44,0.00,,,0.00,258,Wunderground v.1.15,2013-03-14 18:25:00,
2013-03-14 11:35:00,59.6,36.5,30.07,WSW,256,0.0,4.0,42,0.00,,,0.00,258,Wunderground v.1.15,2013-03-14 18:35:00,
2013-03-14 11:40:00,59.8,36.0,30.07,WSW,253,0.0,0.0,41,0.00,,,0.00,276,Wunderground v.1.15,2013-03-14 18:40:00,
2013-03-14 11:45:00,60.1,35.7,30.07,WSW,254,0.0,0.0,40,0.00,,,0.00,288,Wunderground v.1.15,2013-03-14 18:45:00,
2013-03-14 11:50:00,60.3,35.9,30.07,WSW,253,0.0,0.0,40,0.00,,,0.00,330,Wunderground v.1.15,2013-03-14 18:50:00,
2013-03-14 11:55:00,60.6,36.8,30.07,WSW,251,0.0,0.0,41,0.00,,,0.00,302,Wunderground v.1.15,2013-03-14 18:55:00,
2013-03-14 12:00:00,60.8,35.7,30.07,WNW,294,0.0,0.0,39,0.00,,,0.00,274,Wunderground v.1.15,2013-03-14 19:00:00,
2013-03-14 12:10:00,60.9,34.4,30.06,WNW,294,0.0,0.0,37,0.00,,,0.00,288,Wunderground v.1.15,2013-03-14 19:10:00,
2013-03-14 12:15:00,61.0,34.5,30.07,WNW,296,0.0,0.0,37,0.00,,,0.00,299,Wunderground v.1.15,2013-03-14 19:15:00,
2013-03-14 12:20:00,61.3,35.5,30.07,WNW,296,0.0,0.0,38,0.00,,,0.00,302,Wunderground v.1.15,2013-03-14 19:20:00,
2013-03-14 12:25:00,61.6,35.7,30.06,West,268,0.0,0.0,38,0.00,,,0.00,422,Wunderground v.1.15,2013-03-14 19:25:00,
2013-03-14 12:30:00,61.8,35.2,30.07,WNW,298,0.0,0.0,37,0.00,,,0.00,635,Wunderground v.1.15,2013-03-14 19:30:00,
2013-03-14 12:40:00,62.5,35.2,30.06,NW,323,1.0,1.0,36,0.00,,,0.00,907,Wunderground v.1.15,2013-03-14 19:40:00,
2013-03-14 12:45:00,63.4,36.0,30.06,NW,319,0.0,1.0,36,0.00,,,0.00,854,Wunderground v.1.15,2013-03-14 19:45:00,
2013-03-14 12:50:00,63.8,35.6,30.05,West,260,0.0,4.0,35,0.00,,,0.00,680,Wunderground v.1.15,2013-03-14 19:50:00,
2013-03-14 12:55:00,64.4,36.1,30.05,WNW,286,1.0,4.0,35,0.00,,,0.00,598,Wunderground v.1.15,2013-03-14 19:55:00,
2013-03-14 13:00:00,65.0,35.9,30.05,West,279,0.0,0.0,34,0.00,,,0.00,722,Wunderground v.1.15,2013-03-14 20:00:00,
2013-03-14 13:10:00,65.4,35.5,30.04,South,190,1.0,1.0,33,0.00,,,0.00,728,Wunderground v.1.15,2013-03-14 20:10:00,
2013-03-14 13:15:00,65.0,35.2,30.05,SW,218,2.0,2.0,33,0.00,,,0.00,698,Wunderground v.1.15,2013-03-14 20:15:00,
2013-03-14 13:20:00,65.1,36.0,30.04,SW,215,1.0,1.0,34,0.00,,,0.00,738,Wunderground v.1.15,2013-03-14 20:20:00,
2013-03-14 13:25:00,64.8,35.0,30.04,SSW,209,2.0,2.0,33,0.00,,,0.00,742,Wunderground v.1.15,2013-03-14 20:25:00,
2013-03-14 13:30:00,64.6,35.6,30.04,South,181,3.0,4.0,34,0.00,,,0.00,626,Wunderground v.1.15,2013-03-14 20:30:00,
2013-03-14 13:35:00,63.9,35.0,30.04,SE,125,3.0,4.0,34,0.00,,,0.00,548,Wunderground v.1.15,2013-03-14 20:35:00,
2013-03-14 13:45:00,63.9,35.7,30.03,South,169,2.0,2.0,35,0.00,,,0.00,605,Wunderground v.1.15,2013-03-14 20:45:00,
2013-03-14 13:50:00,64.2,35.2,30.03,SSE,161,1.0,1.0,34,0.00,,,0.00,756,Wunderground v.1.15,2013-03-14 20:50:00,
2013-03-14 13:55:00,64.1,34.4,30.03,SSE,165,0.0,1.0,33,0.00,,,0.00,742,Wunderground v.1.15,2013-03-14 20:55:00,
2013-03-14 14:00:00,64.3,35.3,30.03,South,190,0.0,0.0,34,0.00,,,0.00,726,Wunderground v.1.15,2013-03-14 21:00:00,
2013-03-14 14:10:00,64.9,34.3,30.02,SSE,152,1.0,1.0,32,0.00,,,0.00,761,Wunderground v.1.15,2013-03-14 21:10:00,
2013-03-14 14:20:00,65.1,35.3,30.03,SSW,209,1.0,3.0,33,0.00,,,0.00,763,Wunderground v.1.15,2013-03-14 21:20:00,
2013-03-14 14:25:00,65.6,34.1,30.02,SW,234,1.0,3.0,31,0.00,,,0.00,810,Wunderground v.1.15,2013-03-14 21:25:00,
2013-03-14 14:30:00,66.0,32.8,30.02,WNW,287,1.0,1.0,29,0.00,,,0.00,411,Wunderground v.1.15,2013-03-14 21:30:00,
2013-03-14 14:35:00,66.3,34.7,30.02,WNW,301,0.0,1.0,31,0.00,,,0.00,589,Wunderground v.1.15,2013-03-14 21:35:00,
2013-03-14 14:40:00,66.7,33.4,30.02,North,355,1.0,4.0,29,0.00,,,0.00,686,Wunderground v.1.15,2013-03-14 21:40:00,
2013-03-14 14:50:00,67.4,33.1,30.01,North,360,2.0,2.0,28,0.00,,,0.00,512,Wunderground v.1.15,2013-03-14 21:50:00,
2013-03-14 14:55:00,67.4,33.1,30.01,North,5,5.0,5.0,28,0.00,,,0.00,638,Wunderground v.1.15,2013-03-14 21:55:00,
2013-03-14 15:00:00,67.6,33.3,30.02,NW,319,4.0,4.0,28,0.00,,,0.00,468,Wunderground v.1.15,2013-03-14 22:00:00,
2013-03-14 15:10:00,67.8,30.7,30.02,NNE,32,6.0,6.0,25,0.00,,,0.00,494,Wunderground v.1.15,2013-03-14 22:10:00,
2013-03-14 15:15:00,67.7,31.6,30.02,NNE,17,8.0,12.0,26,0.00,,,0.00,482,Wunderground v.1.15,2013-03-14 22:15:00,
2013-03-14 15:25:00,67.0,31.0,30.02,NNW,346,11.0,11.0,26,0.00,,,0.00,332,Wunderground v.1.15,2013-03-14 22:25:00,
2013-03-14 15:30:00,66.6,31.5,30.02,North,5,11.0,11.0,27,0.00,,,0.00,343,Wunderground v.1.15,2013-03-14 22:30:00,
2013-03-14 15:35:00,66.4,31.4,30.02,North,5,12.0,16.0,27,0.00,,,0.00,536,Wunderground v.1.15,2013-03-14 22:35:00,
2013-03-14 15:40:00,66.1,31.1,30.02,North,11,13.0,17.0,27,0.00,,,0.00,559,Wunderground v.1.15,2013-03-14 22:40:00,
2013-03-14 15:45:00,66.1,32.0,30.02,NNE,22,13.0,17.0,28,0.00,,,0.00,615,Wunderground v.1.15,2013-03-14 22:45:00,
2013-03-14 15:55:00,66.0,32.8,30.03,North,360,13.0,17.0,29,0.00,,,0.00,357,Wunderground v.1.15,2013-03-14 22:55:00,
2013-03-14 16:00:00,65.9,32.7,30.03,North,355,12.0,12.0,29,0.00,,,0.00,438,Wunderground v.1.15,2013-03-14 23:00:00,
2013-03-14 16:10:00,65.9,32.7,30.03,NNE,28,10.0,10.0,29,0.00,,,0.00,450,Wunderground v.1.15,2013-03-14 23:10:00,
2013-03-14 16:15:00,65.9,32.7,30.03,NNE,16,11.0,11.0,29,0.00,,,0.00,578,Wunderground v.1.15,2013-03-14 23:15:00,
2013-03-14 16:20:00,66.1,32.9,30.03,NNW,338,11.0,12.0,29,0.00,,,0.00,613,Wunderground v.1.15,2013-03-14 23:20:00,
2013-03-14 16:30:00,66.3,30.4,30.03,North,5,12.0,12.0,26,0.00,,,0.00,462,Wunderground v.1.15,2013-03-14 23:30:00,
2013-03-14 16:35:00,65.9,30.9,30.03,North,9,14.0,14.0,27,0.00,,,0.00,350,Wunderground v.1.15,2013-03-14 23:35:00,
2013-03-14 16:40:00,65.8,30.9,30.03,North,355,13.0,13.0,27,0.00,,,0.00,466,Wunderground v.1.15,2013-03-14 23:40:00,
2013-03-14 16:45:00,65.9,31.8,30.03,NNE,21,11.0,15.0,28,0.00,,,0.00,457,Wunderground v.1.15,2013-03-14 23:45:00,
2013-03-14 16:50:00,65.9,31.8,30.03,North,360,12.0,12.0,28,0.00,,,0.00,404,Wunderground v.1.15,2013-03-14 23:50:00,
2013-03-14 17:00:00,65.2,32.1,30.03,NNE,17,12.0,12.0,29,0.00,,,0.00,257,Wunderground v.1.15,2013-03-15 00:00:00,
2013-03-14 17:10:00,64.7,31.7,30.03,North,5,11.0,14.0,29,0.00,,,0.00,346,Wunderground v.1.15,2013-03-15 00:10:00,
2013-03-14 17:15:00,64.6,32.4,30.03,NNE,19,12.0,14.0,30,0.00,,,0.00,294,Wunderground v.1.15,2013-03-15 00:15:00,
2013-03-14 17:20:00,64.4,32.3,30.03,NNE,30,12.0,12.0,30,0.00,,,0.00,276,Wunderground v.1.15,2013-03-15 00:20:00,
2013-03-14 17:25:00,64.3,33.0,30.03,North,5,11.0,12.0,31,0.00,,,0.00,220,Wunderground v.1.15,2013-03-15 00:25:00,
2013-03-14 17:35:00,63.2,31.2,30.03,North,355,11.0,12.0,30,0.00,,,0.00,132,Wunderground v.1.15,2013-03-15 00:35:00,
2013-03-14 17:40:00,62.9,31.8,30.03,NE,36,11.0,17.0,31,0.00,,,0.00,132,Wunderground v.1.15,2013-03-15 00:40:00,
2013-03-14 17:45:00,62.5,31.4,30.04,North,5,11.0,17.0,31,0.00,,,0.00,120,Wunderground v.1.15,2013-03-15 00:45:00,
2013-03-14 17:50:00,62.2,31.2,30.03,NE,36,12.0,12.0,31,0.00,,,0.00,116,Wunderground v.1.15,2013-03-15 00:50:00,
2013-03-14 17:55:00,62.0,31.0,30.03,North,5,10.0,12.0,31,0.00,,,0.00,153,Wunderground v.1.15,2013-03-15 00:55:00,
2013-03-14 18:00:00,62.0,31.0,30.04,NNE,26,10.0,12.0,31,0.00,,,0.00,216,Wunderground v.1.15,2013-03-15 01:00:00,
2013-03-14 18:10:00,62.3,31.3,30.04,NNE,17,9.0,11.0,31,0.00,,,0.00,214,Wunderground v.1.15,2013-03-15 01:10:00,
2013-03-14 18:15:00,62.5,30.6,30.04,North,360,10.0,14.0,30,0.00,,,0.00,186,Wunderground v.1.15,2013-03-15 01:15:00,
2013-03-14 18:20:00,62.5,31.4,30.04,NNE,19,11.0,13.0,31,0.00,,,0.00,116,Wunderground v.1.15,2013-03-15 01:20:00,
2013-03-14 18:25:00,62.0,30.2,30.05,NNE,31,12.0,13.0,30,0.00,,,0.00,90,Wunderground v.1.15,2013-03-15 01:25:00,
2013-03-14 18:30:00,61.5,30.6,30.05,North,5,12.0,12.0,31,0.00,,,0.00,70,Wunderground v.1.15,2013-03-15 01:30:00,
2013-03-14 18:40:00,60.3,27.9,30.05,NNE,14,13.0,13.0,29,0.00,,,0.00,51,Wunderground v.1.15,2013-03-15 01:40:00,
2013-03-14 18:45:00,59.8,26.6,30.05,NNE,30,14.0,21.0,28,0.00,,,0.00,40,Wunderground v.1.15,2013-03-15 01:45:00,
2013-03-14 18:50:00,59.5,26.3,30.06,North,10,14.0,14.0,28,0.00,,,0.00,39,Wunderground v.1.15,2013-03-15 01:50:00,
2013-03-14 18:55:00,59.2,24.3,30.06,NNE,12,15.0,16.0,26,0.00,,,0.00,25,Wunderground v.1.15,2013-03-15 01:55:00,
2013-03-14 19:00:00,58.9,24.0,30.06,North,9,14.0,14.0,26,0.00,,,0.00,21,Wunderground v.1.15,2013-03-15 02:00:00,
2013-03-14 19:10:00,58.4,23.6,30.06,North,355,12.0,12.0,26,0.00,,,0.00,7,Wunderground v.1.15,2013-03-15 02:10:00,
2013-03-14 19:15:00,58.1,24.3,30.07,NNE,15,10.0,12.0,27,0.00,,,0.00,0,Wunderground v.1.15,2013-03-15 02:15:00,
2013-03-14 19:20:00,57.9,24.1,30.07,NNE,20,9.0,9.0,27,0.00,,,0.00,0,Wunderground v.1.15,2013-03-15 02:20:00,
2013-03-14 19:25:00,57.6,25.5,30.08,North,355,9.0,10.0,29,0.00,,,0.00,0,Wunderground v.1.15,2013-03-15 02:25:00,
2013-03-14 19:30:00,57.3,25.3,30.08,North,10,8.0,8.0,29,0.00,,,0.00,0,Wunderground v.1.15,2013-03-15 02:30:00,
2013-03-14 19:35:00,57.1,25.1,30.08,NNE,15,6.0,8.0,29,0.00,,,0.00,0,Wunderground v.1.15,2013-03-15 02:35:00,
2013-03-14 19:40:00,56.9,25.7,30.08,NNE,16,6.0,6.0,30,0.00,,,0.00,0,Wunderground v.1.15,2013-03-15 02:40:00,
2013-03-14 19:45:00,56.7,27.1,30.08,North,355,6.0,8.0,32,0.00,,,0.00,0,Wunderground v.1.15,2013-03-15 02:45:00,
2013-03-14 19:50:00,56.6,27.0,30.08,North,355,6.0,6.0,32,0.00,,,0.00,0,Wunderground v.1.15,2013-03-15 02:50:00,
2013-03-14 19:55:00,56.4,27.6,30.09,North,5,5.0,6.0,33,0.00,,,0.00,0,Wunderground v.1.15,2013-03-15 02:55:00,
2013-03-14 20:00:00,56.2,28.2,30.09,NNE,26,5.0,7.0,34,0.00,,,0.00,0,Wunderground v.1.15,2013-03-15 03:00:00,
2013-03-14 20:10:00,55.8,28.5,30.10,NNE,22,8.0,8.0,35,0.00,,,0.00,0,Wunderground v.1.15,2013-03-15 03:10:00,
2013-03-14 20:15:00,55.7,29.1,30.10,North,355,7.0,8.0,36,0.00,,,0.00,0,Wunderground v.1.15,2013-03-15 03:15:00,
2013-03-14 20:20:00,55.6,29.7,30.10,NNW,347,6.0,9.0,37,0.00,,,0.00,0,Wunderground v.1.15,2013-03-15 03:20:00,
2013-03-14 20:25:00,55.4,29.5,30.10,North,355,7.0,9.0,37,0.00,,,0.00,0,Wunderground v.1.15,2013-03-15 03:25:00,
2013-03-14 20:30:00,55.2,29.4,30.10,NNE,27,7.0,11.0,37,0.00,,,0.00,0,Wunderground v.1.15,2013-03-15 03:30:00,
2013-03-14 20:35:00,54.9,30.4,30.10,North,5,8.0,13.0,39,0.00,,,0.00,0,Wunderground v.1.15,2013-03-15 03:35:00,
2013-03-14 20:45:00,54.0,32.6,30.10,NNE,22,12.0,12.0,44,0.00,,,0.00,0,Wunderground v.1.15,2013-03-15 03:45:00,
2013-03-14 20:50:00,53.7,33.4,30.10,NNE,23,12.0,12.0,46,0.00,,,0.00,0,Wunderground v.1.15,2013-03-15 03:50:00,
2013-03-14 20:55:00,53.3,33.6,30.11,NNE,28,12.0,12.0,47,0.00,,,0.00,0,Wunderground v.1.15,2013-03-15 03:55:00,
2013-03-14 21:00:00,53.1,33.9,30.10,NNE,24,10.0,10.0,48,0.00,,,0.00,0,Wunderground v.1.15,2013-03-15 04:00:00,
2013-03-14 21:05:00,52.9,34.2,30.10,NNE,15,10.0,11.0,49,0.00,,,0.00,0,Wunderground v.1.15,2013-03-15 04:05:00,
2013-03-14 21:10:00,52.6,34.5,30.10,NNE,26,10.0,10.0,50,0.00,,,0.00,0,Wunderground v.1.15,2013-03-15 04:10:00,
2013-03-14 21:20:00,52.3,34.7,30.10,NNE,14,11.0,12.0,51,0.00,,,0.00,0,Wunderground v.1.15,2013-03-15 04:20:00,
2013-03-14 21:25:00,52.2,34.1,30.11,North,350,11.0,12.0,50,0.00,,,0.00,0,Wunderground v.1.15,2013-03-15 04:25:00,
2013-03-14 21:30:00,52.3,34.2,30.11,NE,35,11.0,12.0,50,0.00,,,0.00,0,Wunderground v.1.15,2013-03-15 04:30:00,
2013-03-14 21:35:00,52.2,33.6,30.11,NNE,18,11.0,12.0,49,0.00,,,0.00,0,Wunderground v.1.15,2013-03-15 04:35:00,
2013-03-14 21:40:00,52.3,32.6,30.11,North,5,13.0,17.0,47,0.00,,,0.00,0,Wunderground v.1.15,2013-03-15 04:40:00,
2013-03-14 21:50:00,52.4,32.7,30.12,NNE,21,11.0,11.0,47,0.00,,,0.00,0,Wunderground v.1.15,2013-03-15 04:50:00,
2013-03-14 21:55:00,52.3,33.2,30.12,NE,42,10.0,11.0,48,0.00,,,0.00,0,Wunderground v.1.15,2013-03-15 04:55:00,
2013-03-14 22:00:00,52.0,33.4,30.12,ENE,62,7.0,7.0,49,0.00,,,0.00,0,Wunderground v.1.15,2013-03-15 05:00:00,
2013-03-14 22:10:00,51.8,34.2,30.13,NNE,22,5.0,8.0,51,0.00,,,0.00,0,Wunderground v.1.15,2013-03-15 05:10:00,
2013-03-14 22:15:00,51.7,34.1,30.13,NE,52,3.0,8.0,51,0.00,,,0.00,0,Wunderground v.1.15,2013-03-15 05:15:00,
2013-03-14 22:25:00,50.9,34.4,30.15,NE,49,3.0,11.0,53,0.00,,,0.00,0,Wunderground v.1.15,2013-03-15 05:25:00,
2013-03-14 22:30:00,50.7,34.6,30.15,ENE,63,4.0,6.0,54,0.00,,,0.00,0,Wunderground v.1.15,2013-03-15 05:30:00,
2013-03-14 22:35:00,50.5,34.9,30.15,ENE,66,5.0,6.0,55,0.00,,,0.00,0,Wunderground v.1.15,2013-03-15 05:35:00,
2013-03-14 22:40:00,50.4,34.8,30.15,ENE,76,3.0,5.0,55,0.00,,,0.00,0,Wunderground v.1.15,2013-03-15 05:40:00,
2013-03-14 22:45:00,50.3,35.2,30.15,ENE,71,3.0,5.0,56,0.00,,,0.00,0,Wunderground v.1.15,2013-03-15 05:45:00,
2013-03-14 22:55:00,50.3,36.1,30.16,NNE,28,4.0,7.0,58,0.00,,,0.00,0,Wunderground v.1.15,2013-03-15 05:55:00,
2013-03-14 23:00:00,50.3,36.1,30.16,NNE,22,3.0,3.0,58,0.00,,,0.00,0,Wunderground v.1.15,2013-03-15 06:00:00,
2013-03-14 23:10:00,50.2,37.3,30.15,North,360,1.0,2.0,61,0.00,,,0.00,0,Wunderground v.1.15,2013-03-15 06:10:00,
2013-03-14 23:15:00,50.2,38.1,30.16,NE,36,2.0,4.0,63,0.00,,,0.00,0,Wunderground v.1.15,2013-03-15 06:15:00,
2013-03-14 23:20:00,50.2,38.1,30.16,North,360,4.0,4.0,63,0.00,,,0.00,0,Wunderground v.1.15,2013-03-15 06:20:00,
2013-03-14 23:25:00,50.1,38.0,30.15,NE,40,3.0,8.0,63,0.00,,,0.00,0,Wunderground v.1.15,2013-03-15 06:25:00,
2013-03-14 23:30:00,50.0,38.3,30.15,NNE,22,3.0,4.0,64,0.00,,,0.00,0,Wunderground v.1.15,2013-03-15 06:30:00,
2013-03-14 23:35:00,49.9,38.6,30.15,NNE,26,5.0,8.0,65,0.00,,,0.00,0,Wunderground v.1.15,2013-03-15 06:35:00,
2013-03-14 23:40:00,49.9,39.0,30.16,NNE,15,7.0,7.0,66,0.00,,,0.00,0,Wunderground v.1.15,2013-03-15 06:40:00,
2013-03-14 23:45:00,50.0,39.1,30.16,NNE,16,8.0,8.0,66,0.00,,,0.00,0,Wunderground v.1.15,2013-03-15 06:45:00,
2013-03-14 23:50:00,50.0,39.1,30.16,NNE,16,8.0,8.0,66,0.00,,,0.00,0,Wunderground v.1.15,2013-03-15 06:50:00,